Vorticity
nan nan nan nan nan nan nan nan nan nan nan nan nan nan nan nan nan nan nan nan nan nan nan nan nan nan nan nan nan nan nan nan
nan 14 11 12 10 9 9 8 7 7 7 8 7 8 7 5 10 10 6 4 5 6 6 7 7 7 7 7 8 8 7 nan
nan 11 12 12 10 10 10 8 8 9 9 9 8 8 8 8 4 5 8 7 9 7 6 6 7 7 8 8 7 6 9 nan
nan 6 8 10 8 7 8 9 9 9 10 12 12 10 8 7 13 16 8 6 6 7 8 9 4 5 10 9 5 7 8 nan
nan 7 6 6 8 9 8 7 8 7 8 12 12 12 12 11 11 7 8 10 10 11 10 6 6 6 6 5 7 8 8 nan
nan 7 7 7 9 7 8 8 7 6 4 8 13 11 11 10 9 8 8 9 8 7 9 10 10 6 6 5 6 6 5 nan
nan 7 8 7 8 8 6 7 7 6 6 7 10 9 9 12 12 10 9 8 10 10 7 6 7 10 9 9 7 6 5 nan
nan 6 7 8 6 8 9 6 6 7 7 5 8 10 9 9 10 13 14 13 10 8 9 9 9 9 7 9 8 8 8 nan
nan 6 7 7 8 7 8 7 7 7 5 5 7 9 8 9 9 10 9 7 13 17 9 7 9 11 11 9 10 9 8 nan
nan 6 7 8 9 9 7 8 8 7 7 5 5 7 8 10 10 8 7 7 9 13 15 13 8 8 10 10 10 10 9 nan
nan 6 7 8 9 10 7 7 10 8 7 6 4 7 8 12 10 7 8 8 8 9 8 11 15 11 10 10 9 10 9 nan
nan 8 7 10 10 9 8 7 8 7 7 5 7 9 8 10 10 7 8 10 8 7 9 9 10 13 16 13 9 8 7 nan
nan 8 9 11 9 9 8 7 8 7 5 4 9 9 9 10 9 6 9 11 8 8 9 10 10 9 14 15 12 12 11 nan
nan 8 9 11 10 9 9 9 8 7 7 6 6 8 10 10 9 9 10 10 9 9 10 12 10 9 6 12 18 15 15 nan
nan 7 9 8 12 12 11 10 7 7 8 7 6 8 10 10 10 10 11 11 9 9 10 10 11 10 11 10 12 10 12 nan
nan 9 9 10 10 9 10 12 10 9 8 7 6 8 10 9 9 12 12 11 10 10 10 12 12 10 14 10 6 11 12 nan
nan 7 7 8 9 12 9 12 13 10 6 6 10 9 8 10 11 12 12 12 8 10 12 13 13 11 10 9 12 14 13 nan
nan 9 8 8 8 7 10 12 13 10 10 11 9 9 6 6 11 12 11 9 10 10 9 11 12 12 11 11 12 12 12 nan
nan 8 9 8 9 9 9 10 10 10 11 10 9 11 8 6 9 12 13 9 10 10 9 10 11 10 11 13 11 11 10 nan
nan nan nan nan nan nan nan nan nan nan nan nan nan nan nan nan nan nan nan nan nan nan nan nan nan nan nan nan nan nan nan nan
CAPE
75 301 418 350 348 369 505 489 398 420 483 561 604 638 806 1125 1344 1458 1380 1301 1292 1306 1275 1156 1154 965 505 265 100 152 284 408
58 62 77 372 718 422 658 727 666 602 517 518 540 511 583 755 901 1066 1273 1283 1253 1190 1107 1009 988 919 760 426 182 108 183 275
0 20 45 128 134 133 358 668 603 685 835 832 815 1016 926 871 693 614 920 1014 1013 1048 974 894 808 743 728 576 305 359 155 209
0 0 0 0 0 59 180 202 353 502 568 702 943 1107 1137 937 945 665 774 776 848 830 831 774 654 767 687 551 728 551 411 147
0 0 0 0 0 0 0 7 55 156 361 427 591 749 1000 886 892 844 554 756 1137 1043 1098 1018 841 758 542 669 431 458 421 343
0 0 0 0 0 0 0 0 0 0 0 27 125 569 612 749 1268 888 356 576 588 707 811 931 847 753 747 615 542 463 388 313
0 0 0 0 0 0 0 0 0 0 0 1 3 10 30 217 428 679 748 751 696 668 534 498 586 571 526 527 501 478 449 398
0 0 0 0 0 0 0 0 0 0 0 0 3 5 24 17 7 127 510 682 700 551 579 602 595 487 511 385 436 386 380 420
0 0 0 0 0 0 0 0 0 0 0 0 0 3 10 7 13 20 30 26 29 441 664 466 414 418 382 432 439 390 315 323
0 0 0 0 0 0 0 0 0 1 0 5 5 3 6 7 11 42 31 21 18 7 371 515 372 426 380 405 425 344 231 216
0 0 0 0 0 0 0 0 0 1 0 4 10 8 17 22 17 23 31 36 31 21 10 30 364 326 290 335 371 339 229 180
0 0 0 0 0 0 0 0 0 1 0 2 4 13 23 27 25 38 22 26 38 35 19 17 15 17 303 383 409 385 447 376
0 0 0 0 0 0 0 0 0 0 0 0 4 8 23 9 22 10 16 17 33 23 27 21 17 8 10 187 303 327 526 425
0 0 0 0 0 0 0 0 0 1 3 3 4 7 17 14 17 3 5 14 20 16 19 17 23 26 18 6 273 516 525 504
0 1 2 7 14 8 4 1 0 6 7 11 14 19 26 29 21 13 23 25 19 18 19 20 18 14 18 30 145 301 656 842
1 13 11 10 4 3 3 6 4 9 4 2 10 21 15 14 14 14 21 22 24 21 24 21 21 14 16 13 8 12 300 530
2 6 8 9 4 3 5 6 2 13 17 14 8 5 7 15 18 16 24 22 18 23 21 18 20 15 20 13 7 9 0 324
3 6 3 3 7 3 5 16 14 18 19 20 4 4 2 3 13 16 20 18 17 17 17 12 16 15 17 14 13 11 6 15
8 12 4 10 8 9 13 12 10 11 15 15 15 14 14 15 16 15 22 33 27 21 19 12 10 13 15 17 12 12 11 8
2 1 6 4 11 18 12 8 11 14 14 10 20 24 30 25 26 29 28 23 35 27 18 8 11 9 12 14 16 13 11 10